Location: Kergonan
(48.2337°N, 4.5518°W)
Time: 20:01:33
(UTC+00:00)

FENGYUN 3A - Pass Details

Date: 18 January 2020
Orbit: 824 x 836 km, 98.4° (Epoch: 16 February)

Event Time Altitude Azimuth Distance (km) Brightness Sun altitude
Rises 05:24:02 0° 17° (NNE) 3,376 7.0 -25.8°
Reaches altitude 10° 05:26:27 10° 21° (NNE) 2,440 6.3 -25.4°
Maximum altitude 05:31:47 59° 101° (E) 951 4.2 -24.5°
Drops below altitude 10° 05:37:06 10° 181° (S) 2,430 6.1 -23.7°
Sets 05:39:29 0° 185° (S) 3,361 6.8 -23.3°
